Regional Weather Roundup
Issued by NWS Little Rock, AR

Home | Current Version | Previous Version | Text Only | Print | Product List | Glossary Off
Versions: 1 2 3 4 5 6 7 8 9 10 11 12 13 14 15 16 17 18 19 20 21 22 23 24 25 26 27 28 29 30 31 32 33 34 35 36 37 38 39 40 41 42 43 44 45 46 47 48 49 50

982
ASUS44 KLZK 281105
RWRLZK

WEATHER ROUNDUP FOR ARKANSAS
NATIONAL WEATHER SERVICE LITTLE ROCK AR
600 AM CDT THU APR 28 2016

NOTE: "FAIR" INDICATES FEW OR NO CLOUDS BELOW 12,000 FEET WITH NO
SIGNIFICANT WEATHER AND/OR OBSTRUCTIONS TO VISIBILITY.

ARZ001-003-010-029-281200-
NORTHWEST ARKANSAS

CITY           SKY/WX    TMP DP  RH WIND       PRES   REMARKS
FAYETTEVILLE   CLEAR     45  45 100 CALM      29.90R
FORT SMITH     CLEAR     56  48  74 CALM      29.87R
HARRISON       CLEAR     52  45  77 W6        29.88R
BENTONVILLE    CLEAR     50  39  66 CALM      29.90R
ROGERS         CLEAR     50  43  77 W3        29.90R
SILOAM SPGS    CLEAR     46  39  76 CALM      29.90S
HIGHFILL       CLEAR     51  43  74 NW6       29.89R
SPRINGDALE     CLEAR     50  45  81 CALM      29.91
$$

ARZ004-005-016-281200-
NORTH CENTRAL ARKANSAS

CITY           SKY/WX    TMP DP  RH WIND       PRES   REMARKS
BATESVILLE     CLEAR     54  52  94 CALM      29.85R
FLIPPIN        CLEAR    N/A N/A N/A CALM      29.84R
MTN HOME       CLEAR     53  50  89 CALM      29.85R
$$

ARZ040-041-281200-
WEST CENTRAL ARKANSAS

CITY           SKY/WX    TMP DP  RH WIND       PRES   REMARKS
MENA           CLEAR     50  50 100 CALM      29.88R
MOUNT IDA      CLEAR     51  49  92 CALM      29.84R
$$

ARZ009-017-025-026-028-281200-
NORTHEAST ARKANSAS

CITY           SKY/WX    TMP DP  RH WIND       PRES   REMARKS
CORNING          N/A     57  55  94 CALM      29.83R
JONESBORO      CLEAR     59  55  87 CALM      29.83R
NEWPORT        CLEAR     59  56  89 CALM      29.85R
WALNUT RIDGE   CLEAR     59  52  77 S3        29.83R
BLYTHEVILLE    CLEAR     64  58  80 NW7       29.83R
$$

ARZ022-023-033-042-044-281200-
CENTRAL ARKANSAS

CITY           SKY/WX    TMP DP  RH WIND       PRES   REMARKS
LITTLE ROCK    CLEAR     60  53  77 NW3       29.84R
JACKSONVILLE   CLEAR     55  53  95 CALM      29.84R
SEARCY         CLEAR     55  54  96 CALM      29.86R
HOT SPRINGS    CLEAR     55  53  93 CALM      29.86R
RUSSELLVILLE   CLEAR     53  52  96 S3        29.86R
$$

ARZ036-281200-
EAST ARKANSAS

CITY           SKY/WX    TMP DP  RH WIND       PRES   REMARKS
WEST MEMPHIS   CLEAR     64  63  96 CALM      29.83R
$$

ARZ050-053-066-070-073-281200-
SOUTHWEST ARKANSAS

CITY           SKY/WX    TMP DP  RH WIND       PRES   REMARKS
ARKADELPHIA    PTSUNNY   54  54 100 CALM      29.86R FOG
CAMDEN         CLEAR     54  52  94 CALM      29.86R FOG
TEXARKANA      CLEAR     59  55  87 NE3       29.85R
EL DORADO      PTCLDY    54  54 100 NW3       29.86R
DE QUEEN       FOG       50  50 100 CALM      29.84R VSB 1/2
$$

ARZ056-057-069-281200-
SOUTHEAST ARKANSAS

CITY           SKY/WX    TMP DP  RH WIND       PRES   REMARKS
PINE BLUFF     CLEAR     58  56  93 CALM      29.85R
STUTTGART      CLEAR     61  54  77 N5        29.85R
MONTICELLO     CLEAR     62  60  93 CALM      29.84R

$$






USA.gov is the U.S. government's official web portal to all federal, state and local government web resources and services.